Location: George Washington National Forest Helicopter Landing Site
(38.6463°N, 79.0851°W)
Time: 16:31:15
(UTC-04:00)

Explorer 11/Cluster Stage 4 - All Passes

Search period start: 19 August 2019 00:00
Search period end: 29 August 2019 00:00
Orbit: 467 x 1260 km, 28.8° (Epoch: 18 August)

Date Brightness Start Highest point End Pass type
(mag) Time Alt. Az. Time Alt. Az. Time Alt. Az.
19 Aug - 11:26:49 10° S 11:31:07 15° SSE 11:35:19 10° ESE daylight
19 Aug - 13:12:45 10° SW 13:19:33 30° SSE 13:25:44 10° ESE daylight
19 Aug - 15:01:09 10° WSW 15:08:08 37° S 15:14:07 10° ESE daylight
19 Aug - 16:50:35 10° WSW 16:56:27 29° SSW 17:01:24 10° SE daylight
19 Aug - 18:42:02 10° SW 18:44:07 12° SSW 18:46:02 10° S daylight
20 Aug - 11:15:12 10° SSW 11:20:12 18° SSE 11:25:07 10° ESE daylight
20 Aug - 13:01:37 10° SW 13:08:40 32° SSE 13:15:10 10° ESE daylight
20 Aug - 14:50:09 10° WSW 14:57:19 38° S 15:03:31 10° ESE daylight
20 Aug - 16:39:41 10° WSW 16:45:39 28° SSW 16:50:45 10° SE daylight
20 Aug - 18:31:50 10° SW 18:33:18 11° SSW 18:34:43 10° SSW daylight
21 Aug - 11:03:46 10° SSW 11:09:16 20° SSE 11:14:44 10° ESE daylight
21 Aug - 12:50:32 10° SW 12:57:47 35° SSE 13:04:33 10° ESE daylight
21 Aug - 14:39:10 10° WSW 14:46:29 39° S 14:52:54 10° ESE daylight
21 Aug - 16:28:48 10° WSW 16:34:50 27° SSW 16:40:02 10° SE daylight
22 Aug - 10:52:29 10° SSW 10:58:20 22° SSE 11:04:14 10° ESE daylight
22 Aug - 12:39:30 10° SW 12:46:53 37° S 12:53:53 10° ESE daylight
22 Aug - 14:28:13 10° WSW 14:35:37 39° S 14:42:13 10° ESE daylight
22 Aug - 16:17:57 10° WSW 16:23:59 26° SSW 16:29:16 10° SSE daylight
23 Aug - 10:41:18 10° SSW 10:47:23 24° SSE 10:53:38 10° ESE daylight
23 Aug - 12:28:31 10° SW 12:35:58 38° S 12:43:11 10° ESE daylight
23 Aug - 14:17:17 10° WSW 14:24:44 39° S 14:31:30 10° ESE daylight
23 Aug - 16:07:07 10° WSW 16:13:07 25° SSW 16:18:26 10° SSE daylight
24 Aug - 10:30:12 10° SSW 10:36:27 26° SSE 10:42:58 10° ESE daylight
24 Aug - 12:17:36 10° WSW 12:25:04 40° S 12:32:25 10° ESE daylight
24 Aug - 14:06:23 10° WSW 14:13:51 38° S 14:20:44 10° SE daylight
24 Aug - 15:56:19 10° WSW 16:02:14 23° SSW 16:07:33 10° SSE daylight
25 Aug - 08:35:29 10° SSE 08:37:31 11° SE 08:39:36 10° SE daylight
25 Aug - 10:19:12 10° SW 10:25:31 28° SSE 10:32:14 10° ESE daylight
25 Aug - 12:06:43 10° WSW 12:14:09 41° S 12:21:38 10° ESE daylight
25 Aug - 13:55:31 10° WSW 14:02:57 38° S 14:09:56 10° SE daylight
25 Aug - 15:45:35 10° WSW 15:51:19 22° SSW 15:56:34 10° SSE daylight
26 Aug - 08:23:42 10° S 08:26:36 13° SSE 08:29:37 10° SE daylight
26 Aug - 10:08:15 10° SW 10:14:35 30° SSE 10:21:27 10° ESE daylight
26 Aug - 11:55:52 10° WSW 12:03:14 41° S 12:10:48 10° ESE daylight
26 Aug - 13:44:42 10° WSW 13:52:02 36° SSW 13:59:04 10° SE daylight
26 Aug - 15:34:55 10° WSW 15:40:23 20° SSW 15:45:30 10° SSE daylight
27 Aug - 08:12:18 10° S 08:15:40 14° SSE 08:19:17 10° ESE daylight
27 Aug - 09:57:24 10° SW 10:03:40 31° SSE 10:10:37 10° ESE daylight
27 Aug - 11:45:05 10° WSW 11:52:20 41° S 11:59:55 10° ESE daylight
27 Aug - 13:33:54 10° WSW 13:41:07 35° SSW 13:48:10 10° SE daylight
27 Aug - 15:24:19 10° WSW 15:29:27 18° SSW 15:34:20 10° SSE daylight
28 Aug - 08:01:05 10° S 08:04:46 15° SSE 08:08:47 10° ESE daylight
28 Aug - 09:46:35 10° SW 09:52:47 33° SSE 09:59:45 10° ESE daylight
28 Aug - 11:34:18 10° WSW 11:41:26 41° S 11:49:01 10° ESE daylight
28 Aug - 13:23:09 10° WSW 13:30:11 33° SSW 13:37:11 10° SE daylight
28 Aug - 15:13:51 10° WSW 15:18:31 16° SSW 15:23:00 10° S daylight
